Weather History for Marion, VA

Change the Weather History Date:

Monday, April 14, 2014

  Actual Average (KGEV) Record (KGEV)
Temperature  
Mean Temperature 64 °F -  
Max Temperature 69 °F 63 °F 78 °F (1977)
Min Temperature 59 °F 38 °F 20 °F (1973)
Degree Days  
Heating Degree Days 1    
Growing Degree Days 14 (Base 50)    
Moisture  
Dew Point 51 °F    
Average Humidity 66    
Maximum Humidity 86    
Minimum Humidity 47    
Precipitation  
Precipitation 0.00 in - - ()
Sea Level Pressure  
Sea Level Pressure 29.96 in    
Wind  
Wind Speed 5 mph (South)    
Max Wind Speed 17 mph    
Max Gust Speed 26 mph    
Visibility 10 miles    
Events Rain    
Averages and records for this station are not official NWS values.
T = Trace of Precipitation, MM = Missing Value Source: NWS Daily Summary

Daily Weather History Graph

Daily Weather History Graph

Search for Another Location

Airport:

Trip Planner

Search our weather history database for the weather conditions in past years. The results will help you decide how hot, cold, wet, or windy it might be!

Date:

Astronomy

Apr. 14, 2014 Rise Set
Actual Time 6:52 AM EDT 7:59 PM EDT
Civil Twilight 6:26 AM EDT 8:25 PM EDT
Nautical Twilight 5:54 AM EDT 8:57 PM EDT
Astronomical Twilight 5:21 AM EDT 9:30 PM EDT
Moon 7:36 PM EDT (4/14) 6:22 AM EDT (4/14)
Length of Visible Light 13h 59m
Length of Day
13h 06m
Full, 100% of the Moon is Illuminated
Apr 14
Full
Apr 15
Full
Apr 22
Last Quarter
Apr 29
New
May 6
First Quarter

Hourly Weather History & Observations

Time (EDT) Temp. Dew Point Humidity Pressure Visibility Wind Dir Wind Speed Gust Speed Precip Events Conditions
12:35 AM 64.2 °F 49.3 °F 58% 30.08 in 10.0 mi NW 3.5 mph - N/A   Scattered Clouds
12:55 AM 64.2 °F 49.5 °F 59% 30.07 in 10.0 mi West 3.5 mph - N/A   Mostly Cloudy
1:15 AM 64.4 °F 50.2 °F 60% 30.06 in 10.0 mi SE 4.6 mph - N/A   Overcast
1:35 AM 64.2 °F 50.9 °F 62% 30.05 in 10.0 mi Calm Calm - N/A   Scattered Clouds
1:55 AM 64.0 °F 50.5 °F 61% 30.04 in 10.0 mi Calm Calm - N/A   Scattered Clouds
2:15 AM 64.2 °F 50.7 °F 61% 30.04 in 10.0 mi WSW 5.8 mph - N/A   Mostly Cloudy
2:35 AM 63.5 °F 50.7 °F 63% 30.03 in 10.0 mi WNW 4.6 mph - N/A   Overcast
2:55 AM 63.7 °F 50.9 °F 63% 30.02 in 10.0 mi Calm Calm - N/A   Overcast
3:15 AM 63.5 °F 50.5 °F 63% 30.02 in 10.0 mi Calm Calm - N/A   Overcast
3:35 AM 63.0 °F 50.5 °F 64% 30.02 in 10.0 mi WSW 4.6 mph - N/A   Overcast
3:55 AM 62.6 °F 50.5 °F 65% 30.02 in 10.0 mi NW 5.8 mph - N/A   Overcast
4:15 AM 62.6 °F 50.5 °F 65% 30.01 in 10.0 mi NW 3.5 mph - N/A   Overcast
4:35 AM 62.1 °F 50.4 °F 65% 29.99 in 10.0 mi NE 3.5 mph - N/A   Overcast
4:55 AM 62.1 °F 50.2 °F 65% 29.98 in 10.0 mi NNE 4.6 mph - N/A   Overcast
5:15 AM 62.4 °F 50.0 °F 64% 29.99 in 10.0 mi West 4.6 mph - N/A   Overcast
5:35 AM 61.7 °F 50.5 °F 67% 30.00 in 10.0 mi SSW 11.5 mph 21.9 mph N/A   Overcast
5:55 AM 61.3 °F 50.9 °F 69% 30.00 in 10.0 mi SSW 13.8 mph 19.6 mph N/A   Overcast
6:15 AM 61.0 °F 50.5 °F 68% 29.99 in 10.0 mi SSW 4.6 mph - N/A   Overcast
6:35 AM 61.2 °F 50.4 °F 68% 29.99 in 10.0 mi SSW 3.5 mph - N/A   Overcast
6:55 AM 60.8 °F 50.4 °F 68% 30.00 in 10.0 mi Calm Calm - N/A   Overcast
7:15 AM 60.6 °F 50.0 °F 68% 30.01 in 10.0 mi SSW 6.9 mph - N/A   Overcast
7:35 AM 60.8 °F 49.5 °F 66% 30.02 in 10.0 mi WSW 9.2 mph 19.6 mph N/A   Overcast
7:55 AM 60.4 °F 49.6 °F 68% 30.02 in 10.0 mi SW 8.1 mph - N/A   Overcast
8:15 AM 60.4 °F 49.6 °F 68% 30.02 in 10.0 mi South 6.9 mph - N/A   Overcast
8:35 AM 60.8 °F 49.5 °F 66% 30.02 in 10.0 mi WSW 3.5 mph - N/A   Overcast
8:55 AM 61.2 °F 49.3 °F 65% 30.02 in 10.0 mi SW 12.7 mph 23.0 mph N/A   Overcast
9:11 AM 60.8 °F 50.0 °F 68% 30.01 in 10.0 mi Calm Calm - N/A   Mostly Cloudy
9:15 AM 61.3 °F 49.6 °F 65% 30.02 in 10.0 mi Calm Calm - N/A   Mostly Cloudy
9:35 AM 61.7 °F 49.5 °F 64% 30.02 in 10.0 mi SW 6.9 mph - N/A   Mostly Cloudy
9:55 AM 62.1 °F 49.6 °F 64% 30.02 in 10.0 mi SW 6.9 mph 17.3 mph N/A   Scattered Clouds
10:15 AM 62.4 °F 49.6 °F 63% 30.02 in 10.0 mi South 6.9 mph - N/A   Scattered Clouds
10:35 AM 63.0 °F 49.8 °F 62% 30.02 in 10.0 mi South 8.1 mph - N/A   Scattered Clouds
10:55 AM 63.9 °F 49.3 °F 59% 30.02 in 10.0 mi South 9.2 mph - N/A   Scattered Clouds
11:15 AM 64.9 °F 49.5 °F 57% 30.01 in 10.0 mi SSE 4.6 mph 21.9 mph N/A   Scattered Clouds
11:35 AM 66.0 °F 48.2 °F 53% 30.01 in 10.0 mi South 16.1 mph 24.2 mph N/A   Scattered Clouds
11:55 AM 67.5 °F 48.7 °F 51% 29.99 in 10.0 mi South 8.1 mph 18.4 mph N/A   Scattered Clouds
12:15 PM 67.8 °F 48.9 °F 51% 29.99 in 10.0 mi South 10.4 mph 21.9 mph N/A   Clear
12:35 PM 67.5 °F 48.2 °F 50% 29.98 in 10.0 mi SSW 9.2 mph 18.4 mph N/A   Clear
12:55 PM 69.4 °F 48.6 °F 47% 29.97 in 10.0 mi South 17.3 mph 24.2 mph N/A   Clear
1:35 PM 67.6 °F 48.2 °F 50% 29.96 in 10.0 mi SSE 15.0 mph 26.5 mph N/A   Scattered Clouds
1:55 PM 67.3 °F 49.3 °F 52% 29.96 in 10.0 mi South 11.5 mph 21.9 mph N/A   Mostly Cloudy
2:15 PM 66.6 °F 49.3 °F 54% 29.97 in 10.0 mi South 11.5 mph 21.9 mph N/A   Overcast
2:35 PM 66.4 °F 49.5 °F 54% 29.96 in 10.0 mi South 9.2 mph 21.9 mph N/A   Overcast
2:55 PM 66.2 °F 50.2 °F 56% 29.96 in 10.0 mi South 10.4 mph 19.6 mph N/A   Overcast
3:15 PM 66.4 °F 50.0 °F 56% 29.96 in 10.0 mi SSE 12.7 mph 18.4 mph N/A   Overcast
3:35 PM 65.8 °F 50.4 °F 57% 29.94 in 10.0 mi South 9.2 mph 16.1 mph N/A   Overcast
4:15 PM 64.4 °F 52.0 °F 64% 29.94 in 10.0 mi SSE 8.1 mph 23.0 mph N/A Rain Light Rain
4:35 PM 62.6 °F 53.8 °F 73% 29.94 in 10.0 mi South 10.4 mph 16.1 mph N/A Rain Light Rain
4:55 PM 63.0 °F 53.6 °F 71% 29.93 in 10.0 mi South 4.6 mph - N/A   Overcast
5:15 PM 63.1 °F 53.4 °F 71% 29.92 in 10.0 mi South 9.2 mph - N/A   Overcast
5:35 PM 63.1 °F 52.9 °F 69% 29.91 in 10.0 mi South 4.6 mph 16.1 mph N/A   Overcast
5:55 PM 62.6 °F 53.6 °F 72% 29.90 in 10.0 mi South 6.9 mph - N/A   Overcast
6:15 PM 62.8 °F 53.8 °F 72% 29.90 in 10.0 mi South 3.5 mph - N/A   Overcast
6:35 PM 62.6 °F 54.3 °F 74% 29.90 in 10.0 mi Calm Calm - N/A   Overcast
6:55 PM 62.6 °F 54.7 °F 75% 29.89 in 10.0 mi ESE 3.5 mph - N/A   Overcast
7:15 PM 62.6 °F 53.8 °F 73% 29.88 in 10.0 mi South 6.9 mph - N/A   Mostly Cloudy
7:35 PM 62.1 °F 54.0 °F 75% 29.88 in 10.0 mi SSE 10.4 mph - N/A   Mostly Cloudy
7:55 PM 62.1 °F 53.8 °F 74% 29.87 in 10.0 mi SSE 9.2 mph - N/A   Overcast
8:15 PM 62.1 °F 53.8 °F 74% 29.86 in 10.0 mi SSE 4.6 mph - N/A   Overcast
8:35 PM 61.9 °F 54.0 °F 75% 29.86 in 10.0 mi SE 4.6 mph - N/A   Overcast
8:55 PM 61.7 °F 54.1 °F 76% 29.86 in 10.0 mi SSE 8.1 mph - N/A   Overcast
9:15 PM 61.3 °F 54.5 °F 78% 29.87 in 10.0 mi South 8.1 mph - N/A Rain Light Rain
9:35 PM 60.3 °F 55.0 °F 83% 29.87 in 10.0 mi Calm Calm - N/A   Light Drizzle
9:55 PM 60.1 °F 55.4 °F 85% 29.87 in 10.0 mi Calm Calm - N/A   Overcast
10:15 PM 59.9 °F 55.6 °F 86% 29.85 in 10.0 mi Calm Calm - N/A   Overcast
10:35 PM 60.6 °F 54.7 °F 81% 29.85 in 10.0 mi SSE 3.5 mph - N/A   Overcast
10:55 PM 61.0 °F 54.7 °F 80% 29.84 in 10.0 mi Calm Calm - N/A   Overcast
11:15 PM 60.6 °F 55.4 °F 83% 29.84 in 10.0 mi Calm Calm - N/A Rain Light Rain
11:35 PM 60.8 °F 55.4 °F 82% 29.82 in 10.0 mi Calm Calm - N/A   Overcast
11:55 PM 60.8 °F 55.6 °F 83% 29.83 in 10.0 mi West 6.9 mph - N/A   Overcast